Location: Newark
(28.4500°N, 16.2500°W)
Time: 19:09:00
(UTC+00:00)

JUGNU - Pass Details

Date: 29 October 2019
Orbit: 836 x 864 km, 20.0° (Epoch: 13 November)

Event Time Altitude Azimuth Distance (km) Brightness Sun altitude
Rises 19:24:11 0° 242° (WSW) 3,373 ? -14.1°
Reaches altitude 10° 19:26:59 10° 232° (SW) 2,443 ? -14.7°
Maximum altitude 19:32:06 31° 172° (S) 1,426 ? -15.8°
Enters shadow 19:35:33 18° 122° (ESE) 1,964 ? -16.6°
